User: anonymous   Login
Location: Prairie State College
(41.5244°N, 87.6382°W)
Time: 05:08:28
(UTC-05:00)
Language:

Cosmos 1140 Rocket - Orbit

View from above orbital plane
View from above orbital plane
View from above satellite
View from above satellite

Ground track
Ground track

The orbit data is extracted from the following two-line orbital elements,

1 11574U 79089B   14295.15437113  .00000537  00000-0  17749-3 0  8712
2 11574 074.0713 207.3908 0016186 354.6028 110.4932 14.40291406837628
Epoch (UTC): 22 October 2014 03:42:17
Eccentricity: 0.0016186
inclination: 74.0713°
perigee height: 746 km
apogee height: 769 km
right ascension of ascending node: 207.3908°
argument of perigee: 354.6028°
revolutions per day: 14.40291406
mean anomaly at epoch: 110.4932°
orbit number at epoch: 83762

The dashed part of the orbit path shows where the satellite is in the earth's shadow,  

DLR